Location: Tel Aviv
(32.0670°N, 34.7670°E)
Time: 03:51:52
(UTC+03:00)

AO-7 - Pass Details

Date: 17 September 2024
Orbit: 1440 x 1458 km, 102.0° (Epoch: 10 October)

Event Time Altitude Azimuth Distance (km) Brightness Sun altitude
Rises 05:07:53 0° 30° (NNE) 4,566 ? -17.2°
Reaches altitude 10° 05:11:12 10° 41° (NE) 3,582 ? -16.5°
Maximum altitude 05:18:13 29° 99° (E) 2,391 ? -15.1°
Drops below altitude 10° 05:25:10 10° 156° (SSE) 3,558 ? -13.7°
Sets 05:28:24 0° 167° (SSE) 4,531 ? -13.0°
